Regional Weather Roundup
Issued by NWS

Home | Current Version | Previous Version | Text Only | Print | Product List | Glossary On
Versions: 1 2 3 4 5 6 7 8 9 10 11 12 13 14 15 16 17 18 19 20 21 22 23 24 25 26 27 28 29 30 31 32 33 34 35 36 37 38 39 40 41 42 43 44 45 46 47 48 49 50
000
ASUS43 KLSX 220807
RWRMO

WEATHER SUMMARY FOR MISSOURI
NATIONAL WEATHER SERVICE SPRINGFIELD MO
200 AM CST TUE JAN 22 2019

NOTE: "FAIR" INDICATES FEW OR NO CLOUDS BELOW 12,000 FEET WITH NO
       SIGNIFICANT WEATHER AND/OR OBSTRUCTIONS TO VISIBILITY.
       CURRENT SKY AND/OR WEATHER CONDITIONS ARE NOT AVAILABLE FOR
       CHILLICOTHE AND FARMINGTON.

MOZ001>031-035>038-043-044-053-054-220900-
...NORTHERN AND WESTERN MISSOURI...

CITY           SKY/WX    TMP DP  RH WIND       PRES   REMARKS
KANSAS CTY INT CLOUDY    34  27  75 SE18G29   29.81R WCI  23
KANSAS C DTWN  CLOUDY    37  24  59 SE12G22   29.83F WCI  29
LEE`S SUMMIT   CLOUDY    34  26  72 SE17G29   29.82F WCI  23
ST JOSEPH      CLOUDY    33  26  75 SE16      29.81F WCI  23
CHILLICOTHE      N/A     30  22  72 SE10G23   29.94F WCI  21
KIRKSVILLE     CLOUDY    25  21  85 SE18      29.99F WCI  11

$$
MOZ066>068-077>081-088>096-101>105-220900-
...SOUTHWEST MISSOURI...

CITY           SKY/WX    TMP DP  RH WIND       PRES   REMARKS
SPRINGFIELD    CLOUDY    35  25  66 SE21      29.91F WCI  24
JOPLIN         CLOUDY    44  32  62 S20G33    29.85F
BRANSON        CLOUDY    37  28  70 SE14      29.97F WCI  29

$$
MOZ032>034-039>042-045>050-055>058-069>072-220900-
...CENTRAL MISSOURI...

CITY           SKY/WX    TMP DP  RH WIND       PRES   REMARKS
COLUMBIA       PTCLDY    28  19  69 SE12G24   30.01F WCI  18
ROLLA          CLOUDY    32  21  64 S17G28    30.05S WCI  21
SEDALIA        CLOUDY    33  26  75 SE17      29.92F WCI  22
WHITEMAN AFB   CLOUDY    35  26  69 SE12G20   29.85F WCI  27
WARRENSBURG    CLOUDY    36  27  69 SE20G26   29.88F WCI  25
OSAGE BEACH    CLOUDY    33  24  69 SE9       30.00F WCI  25

$$
MOZ051-052-059>065-220900-
...EAST CENTRAL MISSOURI...

CITY           SKY/WX    TMP DP  RH WIND       PRES   REMARKS
ST LOUIS INTL  CLOUDY    25  14  63 SE14      30.17S WCI  13
SPIRIT OF STL  CLOUDY    26  15  63 VRB5      30.16S WCI  20
ST CHARLES     CLOUDY    24  15  68 SE10      30.18S WCI  14

$$
MOZ072>076-082>087-097>100-106>115-220900-
...SOUTH CENTRAL AND SOUTHEAST MISSOURI...

CITY           SKY/WX    TMP DP  RH WIND       PRES   REMARKS
CAPE GIRARDEAU FAIR      28  17  63 SE14      30.23S WCI  17
FARMINGTON     CLOUDY    27  18  69 S12       30.15R WCI  17
POPLAR BLUFF   FAIR      31  23  72 SE8       30.21R WCI  23
WEST PLAINS    CLOUDY    33  26  75 SE15G24   30.07S WCI  23

$$



USA.gov is the U.S. government's official web portal to all federal, state and local government web resources and services.